RH
96 96 96 95 93 90 86 79 75 76 82 88 90 90 90 91 91 90 90 90 94 97 98 99 99 99 99 99 99 98 98 98 98 98 95 88 78 69 62 60 60 62 65 71 79 88 96 99 99 98 98 98 99 100 100 100 99 99 99 100 100 100 100 100 100 100 99 100 100 98 94 87 80 76 78 86 91 95 98 95 89 82 80 81 82 82
96 96 96 96 97 97 97 92 83 78 80 88 92 93 92 92 92 90 90 90 93 97 98 98 99 99 99 99 99 99 98 98 98 96 92 80 69 60 52 49 49 51 55 60 68 77 88 95 98 99 99 98 99 99 100 100 99 99 99 99 100 100 99 99 100 100 100 100 100 100 99 93 87 82 81 86 91 94 97 94 90 85 84 85 86 87
96 96 95 96 96 97 97 96 89 81 80 86 92 94 93 92 92 92 90 90 93 98 98 98 98 99 99 99 98 98 98 97 96 93 86 74 64 56 49 45 44 44 46 50 56 64 76 87 94 98 100 99 99 99 99 100 99 98 98 99 99 99 98 98 98 99 100 100 100 100 100 96 92 89 87 90 92 95 96 94 92 90 89 90 90 90
96 96 96 96 96 97 98 97 93 89 83 86 90 93 94 93 93 93 92 90 93 97 99 99 99 99 99 98 98 98 97 95 94 90 82 71 62 54 48 45 43 42 42 44 47 53 62 75 86 95 99 99 99 99 99 99 99 98 97 98 99 98 97 96 97 98 100 100 100 100 100 98 97 95 94 94 95 96 96 94 93 92 93 94 93 92
96 96 96 96 97 97 98 98 98 96 92 88 89 92 94 94 94 94 94 92 92 96 99 99 99 99 99 98 98 98 97 96 92 88 79 69 60 53 48 46 44 43 43 44 45 48 53 63 75 87 96 98 99 99 98 98 98 97 97 97 98 98 97 96 98 99 100 100 100 100 100 100 100 99 98 98 97 97 98 96 96 96 97 97 96 94
97 97 97 98 98 98 98 96 96 96 97 92 90 91 93 93 94 95 96 94 94 95 99 99 99 99 99 98 98 98 97 95 90 83 76 67 60 53 48 46 45 45 45 46 48 49 50 56 65 76 88 95 98 99 98 98 97 97 98 98 98 98 99 99 99 100 100 100 100 100 100 100 100 100 100 99 99 98 98 98 98 98 99 99 98 97
96 96 97 98 98 97 94 86 86 92 99 97 95 93 92 92 93 95 97 97 96 96 98 99 99 99 99 98 98 98 96 93 87 79 72 64 58 54 49 47 46 45 46 48 50 52 53 55 60 68 78 89 95 98 98 97 96 96 97 98 99 99 99 100 100 100 100 100 100 100 100 100 100 100 100 100 100 99 99 99 99 100 100 100 99 98
94 95 96 97 97 94 88 76 76 83 96 99 98 95 92 90 89 92 96 98 98 97 98 98 99 99 99 98 98 98 96 91 84 76 68 62 57 54 51 48 46 45 45 48 50 54 56 57 60 63 70 80 88 94 96 96 95 94 94 97 98 99 100 100 100 100 100 100 100 100 100 100 100 100 100 100 100 100 100 100 100 100 100 100 100 99
92 94 94 94 94 91 85 72 68 74 89 96 99 97 93 89 86 87 90 94 95 96 97 98 98 99 99 99 98 97 95 90 82 74 66 60 56 54 52 50 48 46 45 47 50 53 57 60 61 63 66 73 80 88 92 93 92 91 90 92 95 98 100 100 100 100 100 100 100 100 99 99 99 100 100 100 100 100 100 100 100 100 100 100 100 99
94 94 92 89 86 84 81 73 66 66 78 92 98 99 98 93 88 84 83 86 88 90 95 98 98 98 98 98 98 97 96 90 82 74 67 62 58 56 54 53 51 48 46 47 49 53 57 60 63 65 67 71 76 81 86 89 89 88 88 89 93 97 99 100 100 100 100 100 100 99 99 98 99 99 100 100 99 99 99 100 100 100 100 100 100 100
98 97 96 92 87 83 84 85 80 76 79 92 98 100 100 93 86 79 76 77 79 83 90 94 95 96 96 98 98 98 96 91 83 76 69 64 62 60 59 58 54 51 48 48 50 52 56 60 64 68 71 74 76 78 81 84 85 86 86 88 92 96 98 99 100 100 100 100 100 99 99 98 99 100 100 99 98 98 97 98 99 100 100 100 100 100
99 99 99 98 96 95 96 97 95 93 94 98 99 98 92 88 83 78 74 72 74 77 83 88 90 91 92 94 97 98 97 92 85 77 71 68 66 64 64 61 58 54 51 50 50 52 55 59 64 70 76 80 82 84 84 82 83 84 86 89 93 97 98 100 100 100 100 100 100 100 100 99 99 100 100 100 98 97 95 96 98 99 100 100 100 100
98 99 99 99 99 98 97 92 90 92 100 100 100 99 97 96 93 87 79 74 72 74 78 82 85 87 88 90 94 96 97 94 89 82 76 74 72 70 69 66 61 56 52 50 50 50 52 56 62 69 76 84 88 90 90 86 84 84 86 91 94 97 99 100 100 100 100 100 100 100 100 100 100 100 100 100 99 97 96 96 98 99 100 100 100 100
98 98 98 98 98 97 94 87 84 87 95 99 100 100 100 98 96 92 86 78 74 72 74 78 81 84 86 89 92 95 97 96 93 89 84 80 78 76 74 70 64 58 54 51 49 48 49 53 58 64 73 82 88 92 92 90 89 88 88 92 96 98 99 100 100 100 100 100 100 100 100 100 100 100 100 100 99 99 98 99 99 100 100 100 100 100
97 97 98 98 98 97 95 90 87 87 90 97 99 99 98 95 94 95 96 90 83 78 77 78 80 82 84 88 92 96 97 97 96 94 90 86 82 78 75 71 66 61 56 53 49 47 46 49 52 57 64 75 84 90 92 92 92 93 95 97 98 98 99 99 100 100 100 100 100 100 100 99 99 99 99 100 100 100 100 100 100 100 100 100 100 100
96 97 97 98 98 98 97 94 91 88 87 92 95 96 94 95 97 98 100 98 96 92 86 85 85 85 85 86 90 94 97 98 96 94 90 85 81 77 73 69 65 61 58 54 50 47 45 46 47 50 55 65 75 83 89 89 92 95 99 99 99 99 99 99 100 100 100 100 100 100 99 98 98 98 99 99 100 100 100 100 100 100 100 100 99 99
95 96 96 97 97 97 97 96 94 92 88 90 92 93 94 98 99 100 100 100 100 98 95 93 93 94 92 88 88 92 98 98 96 92 85 78 74 70 67 64 62 58 56 53 50 47 45 44 44 45 48 55 65 75 84 86 90 94 99 100 100 99 99 99 100 100 100 100 100 100 99 98 97 97 99 100 100 100 100 100 100 100 100 100 100 100
94 95 95 96 96 96 97 97 96 95 92 93 93 93 92 95 98 100 100 100 100 100 99 100 99 99 98 92 90 92 100 98 95 90 82 74 68 64 62 60 58 56 54 52 49 47 45 43 42 42 43 48 56 66 77 82 88 93 98 99 100 99 99 99 99 100 100 100 100 100 99 98 97 97 99 100 100 100 100 100 100 100 100 100 100 100
94 94 94 95 95 96 96 97 97 97 97 98 98 97 94 92 96 100 100 100 100 100 100 100 100 99 98 92 92 95 100 99 96 92 84 75 68 62 60 60 58 57 54 52 49 47 44 42 40 40 40 44 51 60 71 78 86 92 96 98 99 99 99 99 99 100 100 99 100 100 100 99 98 98 100 100 100 100 100 100 100 100 100 100 100 99
92 93 93 94 95 95 96 96 97 97 98 98 98 98 96 94 97 100 100 100 100 100 100 100 100 99 96 91 90 92 98 100 99 97 92 84 74 65 61 62 61 60 58 54 51 48 44 42 40 39 40 43 49 58 67 76 84 90 94 97 98 99 99 99 99 99 100 99 99 99 99 100 100 100 100 100 100 100 100 100 100 100 100 100 100 99
92 92 93 94 94 95 95 96 96 97 97 98 98 98 97 98 99 100 100 100 100 100 100 100 100 99 97 92 86 87 98 99 100 100 99 93 83 72 66 67 67 66 62 58 55 51 47 43 40 39 40 44 51 60 69 77 83 88 92 96 98 99 99 99 99 100 99 99 98 98 97 99 100 100 100 100 100 100 100 100 100 100 99 99 99 99
92 92 93 93 94 94 95 95 96 96 96 96 97 98 98 99 100 100 100 100 100 100 99 99 99 98 97 92 86 86 98 99 100 100 100 98 90 82 74 76 75 74 70 66 63 59 54 49 45 42 42 47 55 64 73 81 86 89 91 96 98 99 99 99 99 99 98 99 99 98 96 98 99 100 100 100 100 100 100 100 100 99 99 99 99 99
92 92 92 93 94 94 94 95 94 94 95 95 96 96 97 99 100 100 100 100 100 98 96 93 93 93 93 90 86 87 96 99 100 100 100 100 96 90 82 82 83 84 82 81 78 74 68 60 54 51 50 55 60 68 76 85 90 92 94 97 98 98 99 99 99 99 98 99 99 99 98 99 99 100 100 100 100 100 100 100 100 99 99 99 99 99
92 92 92 93 94 94 94 94 94 94 94 94 93 93 92 95 97 99 100 100 100 98 94 90 87 87 89 88 87 88 96 99 100 100 100 100 98 94 89 89 90 93 95 95 92 89 84 76 68 63 61 64 67 71 78 87 92 95 96 98 98 98 98 98 99 99 99 99 99 100 99 99 99 100 100 100 100 100 100 100 100 99 99 99 99 98
92 92 92 93 93 94 94 94 94 93 93 92 89 87 86 88 92 96 100 100 100 99 98 93 89 86 87 89 87 88 98 99 100 100 100 100 99 97 94 96 98 99 100 100 99 97 94 89 84 79 77 75 73 73 77 87 93 97 98 98 98 98 97 98 98 98 99 99 100 100 99 99 99 100 100 100 100 100 100 99 99 99 99 99 98 98
92 92 92 92 93 93 94 94 94 93 93 90 86 83 82 84 89 93 98 99 100 100 100 99 97 94 93 92 88 88 95 98 100 100 100 100 100 99 98 100 100 100 100 100 100 100 99 98 97 96 95 91 84 77 77 86 92 98 99 99 98 98 96 96 97 99 99 99 100 100 100 99 99 99 99 99 99 99 99 99 99 99 99 98 98 98
92 92 92 93 93 93 94 94 94 94 93 90 87 84 82 84 87 90 93 96 98 100 100 100 100 99 98 94 90 90 95 98 100 100 100 100 100 100 100 100 100 100 100 100 100 100 100 100 100 100 100 100 95 89 85 89 94 98 100 99 99 98 95 94 96 99 99 99 99 99 99 99 99 99 99 99 99 99 99 99 99 98 98 98 97 95
92 92 92 93 93 93 94 94 94 94 94 92 89 86 84 85 86 88 88 90 94 98 100 100 100 100 99 98 96 94 98 99 100 100 100 100 100 100 100 100 100 100 100 100 100 100 100 100 100 100 100 100 99 98 96 96 97 98 100 100 99 98 95 95 97 99 100 100 99 99 99 99 99 99 99 99 98 98 98 98 98 98 97 95 92 88
92 92 92 93 93 93 94 94 94 94 94 92 90 87 86 88 89 90 90 88 90 94 98 99 100 100 100 100 99 99 100 100 100 100 100 100 100 100 100 99 100 100 100 100 100 100 100 100 100 100 100 100 100 100 100 100 100 100 100 100 100 99 98 98 98 99 99 99 99 99 99 99 99 99 99 99 98 98 98 98 97 95 93 88 81 73
92 92 92 93 93 94 94 94 94 95 95 93 92 90 89 92 93 94 92 88 88 90 96 99 100 100 100 100 100 100 100 100 100 100 100 100 100 100 100 100 100 100 100 100 100 100 100 100 100 100 100 100 100 100 100 100 100 100 100 100 100 100 99 99 99 100 100 99 99 99 99 99 99 99 99 99 98 98 97 96 93 89 84 74 64 55
92 92 92 93 93 94 94 94 94 95 95 94 93 92 92 95 96 96 95 92 92 92 94 98 100 100 100 100 100 100 100 100 100 100 100 100 100 100 100 100 100 100 99 100 100 100 100 100 100 100 100 100 100 100 100 100 100 100 100 100 100 100 100 99 99 99 99 99 99 99 99 99 99 99 99 98 98 96 94 90 84 76 68 57 48 42
92 92 92 93 93 93 94 94 94 94 95 94 94 94 95 97 98 99 98 98 96 94 92 96 98 100 100 100 100 100 100 100 99 99 99 100 100 100 100 100 100 100 98 99 99 100 100 100 100 100 100 100 100 100 100 100 100 100 100 100 100 99 100 100 99 99 99 99 98 98 98 98 98 98 98 97 94 90 85 78 70 62 52 44 38 35
92 92 92 92 92 93 93 94 94 94 95 95 95 96 96 98 98 99 99 100 99 97 94 94 97 99 100 100 100 100 100 100 99 99 99 100 100 100 100 100 100 100 99 99 99 99 100 100 100 100 100 100 100 100 100 100 100 100 100 100 99 99 99 100 99 99 99 99 98 98 98 98 98 98 97 94 89 82 74 67 59 52 45 40 38 38
91 92 92 92 92 92 93 93 94 94 95 95 96 96 96 97 98 99 99 100 100 99 96 95 97 100 100 100 100 100 99 100 100 100 99 100 100 100 100 100 100 100 100 99 99 99 100 100 100 100 100 100 100 100 100 100 100 100 100 99 100 99 99 100 99 99 99 99 99 98 98 98 98 98 97 92 87 80 73 66 60 56 52 51 52 55
91 91 92 92 92 92 92 93 93 94 94 94 95 95 96 96 97 98 99 100 100 100 99 97 98 100 100 100 100 99 97 98 99 100 100 99 100 100 100 100 100 100 100 100 100 100 100 100 100 100 100 100 100 100 100 100 100 100 99 99 99 99 99 99 99 99 99 99 99 98 98 98 98 97 97 94 91 86 82 77 74 72 72 72 73 76
90 90 91 92 92 92 92 92 92 93 93 94 94 95 95 96 96 97 98 99 100 100 100 99 99 100 100 100 100 98 94 95 98 100 100 100 100 100 100 100 100 100 100 100 100 100 100 100 100 100 100 100 100 100 100 100 100 100 100 99 99 99 99 99 99 99 99 98 98 98 97 96 95 94 93 92 90 87 84 82 81 80 80 81 82 81
90 90 90 91 92 92 92 92 92 93 93 93 94 94 94 95 96 96 97 98 99 100 100 100 100 100 100 100 100 98 94 90 95 100 100 100 100 100 100 100 99 99 99 99 99 100 100 100 100 100 100 100 100 100 100 100 100 100 100 99 99 98 98 99 99 98 98 97 96 95 93 91 88 86 83 81 79 77 76 75 75 76 76 76 77 76
89 90 90 90 91 92 92 92 92 92 93 93 94 94 94 94 95 96 97 98 98 99 100 100 100 100 100 100 100 99 97 90 92 98 100 100 100 100 99 100 99 98 99 98 98 98 100 100 100 100 100 100 100 100 100 100 100 100 100 100 100 99 98 99 99 98 97 95 93 90 88 84 80 76 74 71 70 70 70 72 74 76 76 78 78 78
89 90 90 90 90 90 91 92 92 92 92 93 93 94 94 94 95 96 96 97 98 99 100 100 100 100 100 100 100 100 100 94 93 95 99 100 100 100 100 100 99 98 98 98 98 98 98 99 100 100 100 100 100 100 100 100 100 100 100 100 100 100 100 99 98 97 95 92 90 86 82 79 76 73 72 71 72 73 76 80 82 84 84 84 84 83
89 90 90 90 90 90 90 91 92 92 92 93 93 93 94 94 95 96 96 97 98 98 100 100 100 100 100 100 100 100 100 97 94 94 97 99 100 100 100 99 99 98 98 98 98 98 98 98 98 99 100 99 99 100 100 100 99 99 99 99 100 100 100 100 98 96 94 92 89 86 84 82 80 80 81 82 83 85 87 89 90 89 87 86 84 84
89 90 90 90 90 90 90 91 92 92 92 92 93 94 94 94 95 96 96 97 98 98 99 100 100 100 100 100 100 100 100 100 97 95 95 99 100 100 100 100 99 98 97 98 98 98 97 97 97 97 98 98 99 99 99 100 99 99 98 99 99 100 100 100 99 98 96 95 94 93 92 92 91 92 92 92 92 92 90 89 88 87 84 82 80 79
89 90 90 90 90 90 90 91 92 92 92 93 94 94 94 94 95 96 96 96 97 98 98 99 100 100 100 100 100 100 100 100 100 99 98 98 99 100 100 100 99 98 97 98 98 98 96 95 96 96 98 98 98 99 100 100 99 98 98 98 99 100 100 100 100 100 99 99 98 98 98 97 96 95 95 93 92 89 86 84 82 81 80 79 78 78
88 89 90 90 90 90 90 91 92 92 92 93 94 94 94 94 95 95 96 96 96 96 97 98 99 99 100 100 100 100 100 100 100 100 100 99 99 99 100 100 99 98 97 97 98 98 96 94 93 94 94 95 96 97 99 100 99 99 98 97 98 100 100 100 100 100 99 99 98 98 96 95 94 92 90 88 86 84 82 80 79 79 80 80 81 82
86 88 90 90 90 90 90 91 92 92 92 92 93 94 94 94 94 95 95 96 96 96 97 97 98 99 99 100 100 100 100 100 100 100 100 100 100 100 99 100 100 99 97 98 98 97 95 94 93 92 92 90 90 91 93 96 97 97 96 95 94 94 96 98 99 98 98 98 97 96 95 93 92 90 88 87 86 86 86 85 85 85 85 86 87 88
82 86 89 90 90 90 90 90 91 92 92 92 92 93 93 94 94 94 95 95 96 96 96 96 97 98 98 99 100 100 100 100 100 99 99 99 99 100 99 100 100 100 99 98 98 97 96 95 95 94 93 90 90 90 91 93 95 97 97 96 94 93 93 94 96 96 96 96 96 95 94 93 92 91 90 90 90 90 90 90 90 90 90 90 90 90
77 82 86 88 89 90 90 90 90 91 92 92 92 92 93 93 94 94 94 95 95 96 95 96 96 97 97 97 98 98 99 98 98 98 98 97 98 98 100 100 100 100 100 99 98 98 97 96 96 96 96 94 94 94 95 96 97 98 99 98 96 95 95 96 96 96 95 94 94 94 94 92 92 92 92 92 93 93 93 92 91 90 90 90 91 92
72 77 83 86 88 90 90 90 90 90 91 92 92 92 92 93 93 93 94 94 94 95 95 95 96 96 96 96 97 97 98 98 97 97 97 97 96 96 99 99 99 99 100 100 99 99 98 98 98 97 96 96 96 98 98 98 98 98 99 98 97 96 97 98 98 97 96 95 94 94 94 94 93 93 93 93 92 92 92 92 92 91 91 91 92 92
68 73 78 83 86 88 90 90 90 90 90 91 91 92 92 92 92 92 93 93 94 94 94 94 95 95 95 96 96 96 96 97 97 97 97 97 96 96 97 98 98 98 99 99 99 98 98 97 97 97 97 96 96 98 99 98 98 98 98 97 96 95 96 98 98 98 97 97 96 96 96 95 94 93 92 92 92 92 92 92 93 93 93 93 93 94
62 68 74 79 84 87 89 90 90 90 90 90 90 91 92 92 92 92 92 93 93 94 94 94 94 94 94 94 95 95 96 96 96 96 96 96 96 95 96 96 97 98 98 98 98 98 98 97 97 97 96 98 98 98 98 98 98 98 97 96 95 94 95 97 98 99 99 99 98 98 98 96 94 92 91 91 92 92 93 94 95 96 96 96 96 96
57 61 68 74 80 84 88 89 90 90 90 90 90 90 90 91 92 92 92 92 92 93 93 93 93 93 94 94 94 94 95 95 96 96 96 96 95 95 95 96 96 97 97 96 96 96 98 96 96 96 95 96 96 97 98 98 98 98 98 97 96 96 96 98 99 99 99 99 99 99 99 98 96 95 93 92 92 93 95 96 97 97 97 97 97 97
50 54 60 68 74 80 85 88 89 90 90 90 90 90 90 90 91 92 92 92 92 92 92 93 93 93 93 93 93 94 94 95 95 95 95 95 95 95 94 94 96 96 97 95 95 96 96 96 95 94 94 93 93 94 97 98 98 98 99 99 98 98 98 98 99 99 99 99 99 99 99 99 98 98 97 96 95 95 96 97 98 97 97 97 98 98
Wind_Speed
24 23 22 22 22 22 22 23 22 22 21 21 22 23 25 26 24 20 13 8 7 8 9 9 11 17 23 24 25 25 26 26 25 24 23 23 23 23 23 23 24 25 26 27 28 28 29 29 30 31 32 34 35 35 33 30 29 29 31 34 36 38 40 42 43 43 41 41 40 40 40 40 40 41 41 40 39 38 36 36 34 33 32 32 32 33
22 21 21 20 20 20 20 21 22 22 22 22 22 23 25 26 27 24 19 14 11 12 13 12 12 16 21 22 22 23 24 24 24 23 23 23 22 22 22 22 23 24 25 26 27 28 29 29 30 30 31 33 35 35 32 30 29 29 31 34 35 35 35 37 39 39 39 39 39 40 41 41 41 42 42 41 40 39 38 36 35 34 33 32 33 33
21 20 20 20 19 18 19 20 21 22 23 23 24 24 25 27 28 28 25 21 16 15 15 14 12 17 22 21 20 21 23 24 24 23 23 23 23 23 23 22 22 23 24 25 26 28 29 30 30 30 30 31 33 34 32 29 28 29 31 34 35 33 31 33 35 37 37 36 36 38 41 42 42 42 42 42 42 40 39 38 37 35 34 34 34 34
23 21 21 20 19 19 19 19 20 21 22 23 25 26 27 27 28 29 28 26 21 17 16 15 12 17 23 21 19 18 21 24 25 24 24 24 24 24 23 23 22 22 23 24 25 27 28 29 30 30 30 30 31 32 32 29 27 27 30 33 34 33 32 34 37 38 38 34 33 35 39 42 42 42 41 42 42 42 41 40 38 37 36 36 36 36
24 22 20 19 19 19 18 17 18 19 21 22 24 26 27 27 28 29 30 29 25 20 16 14 12 18 22 22 19 18 20 24 25 25 25 25 25 25 25 24 23 23 22 23 24 25 27 29 30 31 31 30 30 31 31 29 27 26 28 31 33 34 35 37 39 39 36 33 32 34 36 40 41 41 40 40 41 41 41 40 39 38 38 38 38 37
24 21 19 19 19 19 18 18 19 19 20 21 23 25 26 27 27 28 29 31 28 22 17 13 12 18 22 23 21 20 20 24 26 26 26 26 26 26 26 25 24 23 23 23 23 24 26 28 29 31 31 31 31 31 31 29 28 28 28 29 31 33 36 38 38 36 33 31 31 31 33 35 38 39 39 39 40 41 41 40 39 39 39 39 39 38
24 22 21 20 21 21 22 22 22 21 20 20 22 24 26 27 28 28 29 31 30 24 17 14 12 16 19 20 20 21 22 25 26 27 27 28 28 27 27 26 25 25 24 24 24 24 25 26 28 30 31 32 32 31 31 31 31 31 30 29 28 30 33 34 34 33 31 30 30 31 31 32 33 34 35 36 38 40 40 40 39 40 40 40 40 39
26 25 24 23 23 23 25 27 25 23 20 19 20 22 25 27 29 31 31 32 30 25 18 15 12 13 14 14 16 19 23 25 27 28 29 29 29 29 28 27 27 26 26 25 25 24 25 26 28 29 31 32 32 31 31 31 32 33 33 31 28 28 29 31 31 31 30 30 30 30 30 30 30 31 32 33 35 37 39 39 40 41 41 41 41 40
26 25 25 25 24 23 25 27 27 25 22 20 20 21 23 26 28 31 32 33 31 25 18 15 13 11 12 13 16 19 23 25 27 28 29 30 30 30 29 28 27 27 27 26 26 25 25 26 27 29 30 32 32 32 31 32 33 34 35 34 31 28 27 28 30 31 30 29 29 29 29 29 29 29 31 32 34 35 38 39 39 40 39 40 41 41
23 24 23 23 23 22 23 25 26 25 24 21 20 19 20 22 25 28 31 33 31 25 18 15 13 12 13 14 17 20 23 26 28 30 30 31 31 30 30 29 28 28 27 27 27 26 26 26 27 28 29 31 32 33 33 33 33 34 35 35 34 31 27 27 28 30 30 29 28 28 28 28 29 29 31 33 34 35 36 37 37 36 35 39 42 43
19 20 21 20 19 18 18 18 20 22 22 20 17 16 17 20 23 26 29 32 30 25 19 16 14 13 14 15 18 20 23 27 29 31 32 32 32 31 31 30 29 28 28 28 27 27 26 26 27 27 29 30 31 32 33 34 34 35 35 36 35 33 30 28 27 28 29 29 28 28 28 29 29 29 30 33 35 36 36 35 34 33 34 39 44 46
10 11 12 12 11 10 10 11 13 14 15 14 14 15 16 18 21 24 27 29 29 26 22 18 15 14 15 16 18 20 24 27 30 32 33 33 33 32 32 31 30 30 29 29 29 28 27 27 27 27 28 29 30 32 33 34 35 35 35 36 35 34 32 29 28 28 28 29 30 30 30 30 30 29 29 32 35 36 35 34 33 34 36 41 45 46
8 7 7 7 8 9 10 12 13 13 11 9 8 8 10 11 14 19 23 27 28 27 24 21 18 16 15 16 17 19 22 26 30 33 34 34 34 33 32 32 31 30 30 30 30 29 28 28 27 28 29 29 30 31 32 34 35 35 36 36 36 34 32 29 27 27 28 30 31 32 33 32 31 29 29 31 33 35 35 35 36 37 40 43 44 45
10 10 10 10 12 13 15 15 15 15 13 9 6 6 7 8 11 15 20 24 27 28 26 23 21 18 16 15 15 17 20 23 28 31 33 34 34 34 33 32 32 31 31 31 31 30 29 28 28 28 29 30 31 32 33 34 34 34 34 35 36 34 31 28 26 27 29 31 33 35 35 33 31 29 29 31 34 35 36 37 39 40 41 41 41 42
8 8 9 10 12 14 15 16 16 17 16 14 10 8 9 10 12 14 17 20 23 25 25 25 24 21 18 16 15 16 18 21 24 27 30 32 33 33 32 32 32 32 32 31 31 31 30 29 29 29 29 30 32 33 34 34 34 33 33 34 35 35 32 28 26 26 28 31 34 36 37 34 31 29 30 33 35 37 38 40 41 42 41 41 41 42
4 5 5 7 8 10 13 14 16 17 18 17 15 13 13 13 14 15 16 17 19 20 22 23 24 23 21 18 16 15 16 19 22 24 26 28 30 31 31 31 31 32 32 32 32 31 31 30 30 30 30 31 32 33 34 35 35 33 33 33 33 34 33 30 26 26 28 32 35 37 37 34 31 29 32 35 38 39 40 41 42 43 43 43 43 44
3 2 3 4 5 7 9 12 14 16 18 19 19 19 18 16 16 15 16 16 16 16 18 21 22 23 23 21 18 16 15 17 20 22 23 25 26 28 29 29 29 30 31 32 32 32 31 31 31 30 30 31 31 32 33 35 35 35 33 32 32 32 32 31 28 27 30 33 36 37 36 34 31 31 34 37 39 40 41 43 44 44 44 44 44 44
5 3 2 2 4 5 7 9 12 16 18 20 21 21 20 19 18 16 16 15 15 15 17 19 21 22 23 21 19 15 13 14 17 19 21 22 24 25 26 26 27 28 29 30 31 32 32 32 31 31 31 31 31 32 33 34 35 36 34 32 31 31 31 30 29 29 32 35 36 36 35 33 32 33 36 38 40 41 43 45 46 46 45 44 44 44
6 4 4 4 3 4 5 7 10 13 16 18 19 19 19 20 19 18 17 16 15 14 15 17 20 21 22 21 18 13 9 11 13 16 18 20 22 23 23 23 24 25 27 29 30 32 32 32 32 31 31 31 31 31 32 33 34 35 36 33 32 32 31 29 28 29 31 34 34 33 33 31 32 34 37 39 41 44 46 47 48 47 46 44 44 44
7 5 5 5 4 4 4 5 8 11 13 15 16 17 17 19 20 19 18 16 14 13 13 15 18 19 20 20 17 12 8 9 12 15 18 20 21 21 21 21 21 22 24 26 29 31 32 32 32 32 32 31 31 30 31 31 33 34 35 35 34 33 31 28 27 28 29 30 30 30 30 29 31 35 38 41 44 47 49 49 49 47 46 45 45 45
6 5 4 3 3 4 4 5 7 9 11 13 14 15 16 18 20 19 17 15 14 14 14 16 17 17 18 18 16 12 8 8 12 16 19 21 22 22 21 20 20 20 22 24 27 29 31 32 32 32 32 31 30 30 30 30 32 33 34 34 34 33 32 30 28 27 28 28 28 28 28 29 31 35 40 44 47 50 51 50 49 47 46 46 46 46
6 5 2 1 2 3 4 6 8 10 11 12 13 14 15 17 19 19 15 13 15 16 17 17 18 18 18 17 15 12 8 9 13 18 20 21 23 23 21 20 19 19 20 21 24 26 29 30 32 32 32 31 30 30 30 30 31 32 33 33 33 32 32 31 29 28 28 28 29 29 29 31 34 38 43 47 50 52 51 50 49 47 46 45 45 45
3 3 2 1 2 4 6 8 10 11 12 13 14 14 15 16 18 17 14 11 14 18 19 20 21 22 22 20 16 12 9 10 14 18 21 23 24 24 22 20 19 18 18 19 21 23 25 27 29 30 31 31 31 30 30 30 30 31 32 33 32 31 31 31 30 29 29 30 31 31 32 35 39 43 47 50 51 52 51 50 48 46 45 44 43 42
3 3 3 3 3 5 7 9 11 13 14 16 16 17 17 17 18 17 14 11 12 16 18 19 21 24 25 23 18 14 11 11 15 19 22 23 24 24 23 21 20 19 19 20 20 21 22 23 25 27 29 29 30 30 30 30 30 31 32 32 32 31 31 30 30 29 29 31 33 34 36 40 44 48 50 52 52 51 50 49 47 45 43 42 41 39
5 5 5 5 6 6 8 10 11 13 15 17 18 19 19 20 20 19 16 12 11 13 15 17 19 22 24 23 20 16 13 12 16 19 22 24 25 25 24 22 22 22 22 22 22 21 20 20 21 22 24 26 27 28 29 30 30 31 32 32 32 32 31 31 30 30 31 33 35 37 40 45 50 52 53 53 52 51 50 48 45 43 42 40 38 36
7 7 7 7 8 8 8 9 10 12 14 16 17 18 19 19 20 20 18 14 13 14 15 16 17 18 18 18 17 16 14 14 16 19 22 24 25 25 25 24 25 26 26 25 24 23 22 20 19 20 21 22 23 24 26 28 29 30 31 32 33 33 31 31 32 33 34 35 38 40 44 50 54 56 55 54 52 50 48 46 44 42 40 38 36 33
8 8 9 9 9 9 9 10 10 11 12 14 15 16 17 17 18 18 18 17 16 16 16 16 15 14 13 13 14 15 16 16 16 18 22 25 27 27 27 27 29 30 29 28 26 26 24 23 22 22 22 22 21 20 22 24 27 29 30 32 33 33 31 32 33 35 36 38 41 44 48 53 57 57 56 54 52 49 47 45 42 41 39 37 34 31
7 8 9 9 10 10 11 11 11 11 12 12 13 15 15 16 16 17 18 18 18 17 17 15 15 15 14 14 14 15 17 17 17 19 24 27 29 30 30 31 32 33 33 31 29 29 28 27 27 28 28 26 24 22 23 24 26 29 31 33 34 33 32 33 35 38 40 42 45 48 52 55 57 57 55 53 51 48 46 44 42 40 38 36 34 33
6 6 7 8 9 10 10 11 11 11 11 11 12 13 14 15 16 16 17 17 17 18 18 17 16 16 16 16 15 16 17 17 17 21 26 30 32 33 33 35 36 36 36 34 33 32 32 32 33 35 35 34 32 30 30 30 31 32 34 35 36 36 35 36 39 42 44 48 51 53 55 57 57 55 53 51 49 46 44 42 40 39 38 37 37 38
3 4 5 6 7 8 9 9 10 10 10 10 11 12 13 14 15 15 15 15 17 19 20 18 17 17 17 17 16 17 19 18 18 22 27 32 35 36 37 38 39 38 38 36 35 34 35 37 40 42 43 42 40 39 38 39 39 40 41 41 41 41 40 42 44 47 50 52 56 59 59 59 57 54 51 49 46 44 42 41 40 40 40 41 42 43
1 1 1 3 4 6 7 8 8 9 9 9 9 11 12 13 14 14 14 15 17 20 21 20 19 18 17 17 18 20 22 20 19 24 30 34 37 40 41 40 39 38 38 38 37 36 33 36 42 46 48 49 48 47 47 47 48 48 49 50 50 49 49 50 52 54 56 59 61 62 61 59 56 53 49 47 44 42 41 41 42 43 44 45 46 46
4 3 2 1 0 2 4 5 6 7 8 8 9 10 11 12 12 13 14 15 16 18 20 21 21 20 18 17 18 21 23 21 20 25 31 35 40 43 43 41 38 36 37 40 42 40 33 33 39 46 50 52 53 54 53 53 54 55 55 57 57 57 58 57 59 60 61 61 61 61 58 56 53 50 48 46 44 44 43 43 44 46 47 48 48 47
8 7 6 5 4 3 2 3 4 5 6 7 8 9 10 10 11 12 12 13 14 17 20 22 23 23 21 19 19 21 23 21 21 26 32 35 38 40 42 40 37 36 36 39 43 45 43 40 42 46 49 52 54 55 55 56 58 59 60 61 61 62 62 63 63 63 62 61 59 56 53 51 50 48 47 47 46 46 46 46 46 47 48 48 47 46
11 10 9 8 7 6 6 5 4 4 5 5 6 7 8 9 10 11 11 11 13 16 20 23 24 24 23 21 20 21 24 22 22 26 32 33 34 35 38 39 38 38 38 40 43 46 47 47 47 47 47 50 52 54 56 57 58 60 62 63 63 62 62 63 63 61 60 58 55 52 50 48 47 46 46 46 46 46 46 45 44 44 43 43 43 42
13 12 11 10 10 9 9 8 8 7 6 6 5 5 6 7 9 10 11 12 13 16 20 23 24 24 24 23 22 23 25 24 23 26 29 31 31 32 35 37 40 41 42 44 46 47 46 48 48 47 47 48 50 52 54 56 58 59 62 63 63 62 61 61 60 59 57 55 52 49 46 44 43 41 41 41 41 41 40 39 37 36 34 34 34 34
16 16 15 14 13 12 11 11 10 10 9 8 7 6 6 6 7 9 10 11 13 16 18 21 23 24 24 24 24 25 27 26 25 25 25 27 29 30 32 36 41 44 46 48 49 49 49 49 49 49 50 49 47 48 50 55 58 59 60 61 61 61 60 59 58 56 54 51 48 45 42 40 38 37 36 35 34 34 33 32 30 29 27 27 27 27
19 19 18 17 16 15 14 13 12 12 11 10 9 8 7 7 7 8 9 11 13 15 18 20 22 23 24 25 26 27 28 28 28 26 23 24 27 30 32 36 42 47 50 51 53 55 56 53 51 51 52 51 48 47 49 53 56 58 58 58 58 58 56 54 53 51 50 47 45 42 41 39 38 36 35 34 33 33 32 31 30 29 29 29 28 29
21 21 20 19 17 16 16 15 14 14 13 12 12 10 9 9 9 9 10 11 13 15 18 20 22 23 24 25 26 28 29 29 30 29 23 22 25 30 34 37 42 47 51 55 59 62 62 58 54 51 49 49 50 50 51 53 55 55 55 55 55 53 51 49 47 46 45 45 44 42 41 40 40 39 38 38 37 37 36 36 35 34 34 34 33 32
23 22 21 20 19 18 17 16 15 14 13 13 12 11 10 10 10 10 11 12 13 15 17 19 21 22 23 24 26 28 30 31 33 31 26 21 23 29 35 38 41 45 50 56 61 64 65 63 59 54 51 50 50 50 52 53 53 53 53 52 50 48 47 45 44 43 43 44 44 44 43 42 42 41 41 40 40 39 39 39 38 37 36 36 35 34
23 23 22 21 19 18 17 16 15 13 12 11 10 10 10 11 12 12 13 13 14 16 18 18 20 21 22 24 26 28 30 32 34 33 30 22 21 27 35 39 41 44 48 54 58 62 64 63 61 59 56 53 52 50 50 50 50 50 50 49 47 46 44 43 43 43 43 43 44 44 44 43 42 42 41 40 40 39 39 38 37 36 35 35 34 33
24 23 22 20 19 17 16 15 14 12 11 10 10 10 11 12 13 14 15 15 15 16 18 18 19 20 22 24 26 28 30 31 33 35 35 27 22 26 33 38 40 43 47 51 54 58 61 62 60 58 56 54 52 50 48 47 46 46 47 47 46 44 43 42 42 42 42 43 43 43 43 43 42 41 41 40 39 38 37 37 36 35 34 33 32 32
25 24 23 21 19 18 16 14 13 11 10 10 10 11 12 13 14 14 15 16 17 18 18 19 19 20 21 24 26 28 29 30 33 35 37 33 27 27 32 36 40 43 46 49 52 55 58 59 58 56 54 52 51 48 46 44 43 43 43 42 42 41 40 38 38 39 40 40 40 41 41 41 41 41 40 39 38 38 37 36 35 34 33 31 29 28
25 24 23 21 19 18 16 14 13 12 11 10 10 11 12 13 14 15 16 17 19 20 20 20 20 21 23 25 26 27 28 29 31 34 36 35 32 30 32 36 39 42 46 49 52 54 54 54 53 52 51 50 49 47 44 42 41 40 38 38 37 36 35 34 35 36 37 37 37 38 39 39 40 40 39 39 38 37 36 35 34 32 31 29 26 24
24 24 23 21 19 18 16 16 15 14 13 12 12 12 12 14 15 16 17 18 20 21 22 22 22 23 25 26 27 27 27 28 30 31 33 34 34 34 34 36 37 41 45 50 54 55 53 51 50 49 47 46 46 45 44 43 41 40 38 37 37 36 35 34 34 35 35 36 36 36 37 38 38 38 38 37 36 35 34 32 31 30 28 27 25 24
24 24 23 22 21 20 19 18 17 16 14 13 13 13 14 15 16 17 18 19 20 22 23 24 24 25 27 27 27 28 27 27 27 28 29 31 33 36 38 37 36 38 44 49 53 54 54 53 52 51 49 48 47 46 46 45 44 42 41 40 39 39 38 37 37 36 37 37 37 37 37 37 37 37 36 35 33 32 30 29 28 27 26 25 24 23
24 24 24 24 23 22 21 20 18 17 16 15 14 14 15 16 17 18 19 20 21 23 24 25 26 28 29 29 28 29 29 28 28 27 28 30 33 37 40 40 38 37 41 46 49 52 53 53 53 53 52 50 49 48 48 47 47 45 44 43 42 42 41 40 40 39 39 39 39 38 38 37 37 36 35 33 31 30 28 27 26 26 25 24 23 22
24 24 24 24 24 23 21 20 19 18 17 16 15 15 15 16 17 19 20 21 22 23 25 26 28 30 30 30 30 30 30 30 30 30 30 32 35 38 41 41 40 39 40 43 46 48 50 50 51 51 52 51 50 49 47 47 47 47 46 45 45 44 44 43 42 41 40 40 40 39 38 37 36 34 33 32 31 30 28 27 26 25 24 23 22 21
24 24 24 24 24 23 22 22 21 20 19 18 16 16 16 17 18 19 20 22 23 24 26 27 29 30 31 31 31 31 32 32 32 31 31 33 35 38 41 42 42 42 42 44 46 48 48 48 48 48 49 51 51 51 49 48 48 48 48 47 47 46 46 44 43 41 40 39 38 37 36 35 34 33 33 32 31 30 29 28 26 25 24 23 22 21
24 24 23 24 23 23 23 22 22 21 21 20 18 17 17 17 18 19 21 22 24 25 27 28 29 31 32 32 32 33 33 34 33 33 32 32 34 36 40 42 44 45 45 46 47 48 49 49 48 46 46 48 50 52 51 50 49 49 48 48 48 47 46 45 43 41 40 38 37 36 35 34 33 32 32 31 31 30 29 28 26 25 24 23 22 20
23 23 23 23 23 23 23 23 22 22 22 21 20 19 18 18 18 20 21 22 24 26 27 28 29 30 32 33 33 34 34 35 35 34 33 33 33 35 38 41 44 46 47 47 47 48 49 48 46 45 45 45 47 50 52 52 50 49 48 48 47 46 46 44 43 42 40 39 37 36 35 34 32 31 30 30 30 30 28 27 26 25 23 22 21 19
23 23 23 23 23 23 23 23 23 22 22 22 21 20 20 19 19 20 21 22 23 25 27 28 29 29 30 32 33 34 35 35 36 36 35 34 34 35 37 39 42 45 46 46 46 46 46 45 42 40 39 40 42 45 48 50 51 50 48 47 46 45 44 43 42 41 40 39 37 36 35 33 32 31 30 29 29 28 27 26 25 24 22 21 20 18
Wind_Direction
276 282 288 293 295 296 295 294 287 275 261 250 242 239 241 243 246 251 262 288 316 320 308 283 246 224 217 216 214 212 211 212 212 212 211 213 217 221 222 223 223 223 222 221 219 218 217 217 216 216 216 216 215 217 218 215 211 209 207 204 203 202 202 201 200 200 201 203 203 203 203 203 203 202 201 200 199 198 199 201 201 201 200 199 198 198
275 280 285 288 291 294 296 298 293 281 266 253 243 239 239 243 246 249 257 275 301 315 311 291 251 220 211 211 211 210 209 209 209 208 207 210 214 218 221 222 223 223 222 222 220 219 218 218 217 216 216 215 215 216 217 215 211 208 206 204 204 205 204 202 200 200 201 203 202 200 200 201 202 202 201 200 199 198 198 199 200 200 199 199 198 198
271 275 278 281 285 290 293 298 297 288 273 260 248 242 242 245 248 252 258 268 285 301 303 293 255 218 207 206 207 207 207 206 205 205 206 209 213 217 220 222 223 223 223 223 222 220 219 218 217 217 216 215 215 216 217 214 211 208 206 205 205 205 204 201 199 199 202 205 203 201 199 200 201 202 202 201 199 198 199 200 199 198 198 198 199 199
267 270 274 279 283 287 290 294 299 296 283 269 256 248 248 251 255 258 261 268 279 292 297 292 256 216 205 204 204 205 205 204 204 205 207 211 214 217 219 221 222 223 224 224 223 222 220 218 217 216 215 214 215 216 217 214 210 207 206 206 205 203 200 196 195 197 202 206 206 202 200 199 200 201 202 202 201 201 201 201 200 199 198 198 199 200
265 266 271 276 281 284 288 291 295 297 292 278 264 256 255 258 262 265 267 269 275 285 294 290 249 214 206 204 205 204 203 204 206 208 211 214 216 218 219 220 221 222 223 224 224 223 221 219 217 216 214 213 213 214 216 214 211 209 209 208 206 203 198 194 195 198 203 207 207 204 201 199 198 198 200 202 203 203 202 202 201 199 198 198 199 200
263 264 267 271 274 278 282 285 287 290 291 284 274 267 264 263 266 270 272 271 273 280 291 288 247 214 206 206 206 205 204 205 208 211 214 216 218 219 220 220 221 222 223 223 224 223 222 220 218 216 214 212 212 213 214 213 212 212 213 211 207 203 199 198 199 203 207 209 208 205 202 200 199 198 197 199 201 202 202 201 199 198 197 197 199 199
262 262 263 264 267 271 275 279 282 286 288 286 281 274 270 266 266 269 274 273 273 277 287 288 256 221 209 207 208 208 207 208 211 214 217 218 219 219 220 220 221 221 222 223 223 223 222 220 218 216 215 213 213 212 212 212 212 214 215 214 211 206 203 203 205 207 209 208 207 205 204 202 201 199 198 197 196 197 198 199 198 197 196 197 198 198
261 261 260 260 263 268 272 275 280 285 288 288 285 281 275 268 266 267 270 271 271 273 281 287 268 234 215 213 213 212 212 214 216 218 220 220 220 220 220 220 221 221 222 222 223 222 221 220 219 217 215 214 214 214 213 212 212 213 215 216 215 213 210 209 208 207 206 205 204 204 203 202 201 200 199 197 194 193 194 196 196 196 196 196 195 195
264 263 262 262 264 268 273 275 278 282 287 289 288 285 280 272 267 265 266 268 268 269 276 284 275 249 224 217 216 217 218 219 221 222 223 224 223 222 221 221 221 222 222 223 222 222 221 220 219 217 215 214 214 213 213 212 213 214 215 215 215 216 217 214 210 206 203 201 202 203 200 199 199 199 197 196 194 193 194 195 196 195 194 192 191 193
271 271 272 273 274 275 276 279 280 283 287 290 288 283 279 275 270 266 265 264 264 265 272 281 278 258 230 219 218 221 222 223 224 225 226 227 226 225 224 223 223 223 223 223 223 222 221 220 218 217 215 214 213 212 211 211 212 214 215 214 213 214 217 216 212 206 201 198 199 199 197 196 196 195 194 193 192 193 196 198 198 196 192 189 188 191
275 278 280 282 283 283 282 285 287 289 292 294 289 281 278 276 273 270 268 265 262 261 266 274 274 260 238 224 221 223 225 226 227 228 228 229 228 227 226 225 224 224 223 223 223 223 222 220 218 217 215 214 213 212 211 210 211 213 214 214 212 213 215 217 212 205 199 195 194 194 194 194 195 195 193 190 190 192 195 198 198 195 190 186 187 190
269 272 275 273 274 276 277 282 287 290 291 290 282 274 275 279 275 270 267 266 263 260 261 265 264 254 241 231 226 224 226 228 229 230 230 230 229 229 228 227 226 224 223 223 223 223 222 220 218 216 215 213 213 212 211 211 211 211 212 211 211 212 214 215 211 203 196 192 191 193 195 196 198 199 195 190 189 190 193 194 193 189 185 183 183 184
242 245 253 255 256 258 262 268 274 277 275 270 264 261 262 268 270 267 264 263 260 258 259 262 261 252 239 234 231 229 228 229 230 231 231 230 230 229 228 228 227 225 224 223 222 222 222 221 219 217 215 213 212 212 212 212 211 210 210 209 209 210 213 213 208 199 192 190 191 194 196 197 198 199 196 191 189 189 189 189 187 183 180 177 177 177
241 243 250 255 258 260 263 265 268 269 270 266 256 246 243 247 256 262 263 263 260 258 258 260 260 254 240 232 231 232 231 229 229 230 230 230 229 228 228 228 227 226 224 223 222 221 221 221 220 218 215 213 211 211 212 212 211 210 209 209 209 210 212 211 204 195 189 190 193 196 197 197 197 197 194 190 188 187 186 184 181 179 179 178 176 175
255 254 257 256 258 260 262 262 263 264 267 269 269 262 255 250 248 251 255 259 260 259 259 259 259 254 244 235 233 235 235 230 227 226 227 227 227 227 227 227 227 226 224 223 221 220 220 221 221 220 217 215 212 211 211 211 210 208 209 210 211 212 212 210 204 195 190 191 195 197 198 197 195 194 192 189 187 185 182 179 177 177 179 181 181 177
280 269 271 262 260 260 260 261 261 261 263 267 268 263 250 240 236 236 238 243 251 257 260 261 261 259 251 240 237 240 239 232 226 224 223 224 225 226 226 226 226 225 224 223 221 220 220 220 221 221 219 217 215 213 212 211 208 206 207 209 211 212 213 213 208 200 194 193 195 197 199 198 195 191 188 187 185 182 179 177 176 178 180 181 179 178
9 310 292 276 267 264 263 262 261 261 261 262 262 257 248 240 234 231 229 231 238 248 255 256 258 259 258 251 246 243 241 232 226 223 223 224 224 225 225 225 224 224 223 222 221 220 220 221 221 222 221 219 217 215 214 212 208 205 206 207 208 209 211 213 210 204 199 196 195 197 198 198 195 189 186 185 183 180 177 177 177 179 182 182 181 180
35 20 349 312 289 278 272 266 262 260 259 259 257 254 249 244 240 235 229 223 225 234 243 247 248 250 252 252 250 246 242 231 227 227 227 227 226 225 224 224 223 223 222 222 221 221 221 221 221 222 222 220 218 217 215 214 210 207 206 206 206 206 207 208 207 203 199 196 194 195 196 195 192 188 185 184 181 179 177 178 179 182 184 186 186 185
34 30 21 360 327 295 279 272 264 259 258 257 255 251 247 244 240 233 223 215 215 223 233 237 241 244 246 247 248 249 246 234 232 233 234 233 230 227 225 224 224 223 222 221 220 221 221 221 222 222 222 221 220 218 216 215 212 209 207 207 207 207 206 204 199 195 194 193 191 191 192 191 189 187 185 183 181 179 179 179 181 183 186 188 190 190
34 28 21 5 341 314 300 280 262 256 258 257 254 250 245 241 234 225 213 207 210 219 228 232 237 242 245 246 248 252 250 239 236 236 237 237 234 230 227 226 226 224 222 220 219 219 220 220 221 222 222 221 220 218 216 215 212 210 208 207 207 208 207 204 196 190 188 189 188 187 188 190 190 188 186 184 182 180 179 181 183 186 189 191 192 192
31 30 35 20 346 328 323 297 274 264 259 256 253 249 243 236 228 219 209 203 207 218 227 232 237 243 246 247 250 253 251 241 233 230 231 235 236 234 231 230 229 227 223 219 217 217 217 218 219 220 220 220 219 217 215 213 212 211 209 208 208 207 207 205 199 194 192 193 191 189 189 192 193 192 188 184 182 181 181 183 187 190 192 193 193 192
24 22 22 331 300 305 301 284 273 265 258 256 251 245 240 232 225 219 212 203 204 213 223 228 234 238 241 243 247 252 252 240 225 220 223 229 234 236 232 231 230 228 224 219 215 214 215 215 216 217 217 217 216 215 213 211 210 209 208 208 207 205 203 203 200 197 197 199 197 193 191 194 195 193 189 185 182 180 181 185 190 193 194 195 195 196
1 355 342 296 265 264 266 267 268 267 265 260 256 250 243 238 232 227 224 211 206 212 223 229 234 237 238 239 243 250 254 236 221 215 217 221 228 232 231 230 229 227 224 219 216 214 213 212 213 213 213 213 213 212 210 208 207 206 206 206 204 201 199 199 199 197 197 199 198 195 192 193 193 192 190 187 184 182 183 185 188 192 196 198 198 197
318 319 310 296 277 268 266 269 271 271 269 265 261 257 255 252 248 244 240 225 212 214 226 233 237 238 238 237 241 250 253 232 215 210 211 215 221 226 228 228 225 221 218 216 216 216 214 212 210 210 209 210 210 209 208 205 203 203 203 201 198 195 195 197 198 198 197 197 196 193 190 190 190 189 188 187 186 185 185 186 188 192 195 196 194 191
303 302 298 288 277 269 267 270 272 274 273 270 266 264 263 262 260 259 254 239 218 213 221 229 233 235 236 237 243 251 250 227 209 204 206 208 214 220 222 221 215 210 206 207 210 213 213 211 208 207 206 207 208 207 205 203 200 199 199 196 193 191 193 196 198 197 195 196 195 192 189 187 186 186 186 186 187 187 186 187 188 189 188 186 183 179
286 284 281 277 271 266 264 266 270 273 274 273 270 268 266 265 263 261 257 245 226 213 213 217 221 225 230 234 243 249 243 223 206 199 200 200 203 205 207 205 203 200 198 197 201 205 206 205 203 201 201 204 206 207 204 201 199 198 197 193 191 191 194 194 193 192 193 193 192 191 187 185 184 183 184 185 186 187 187 187 186 182 179 176 172 170
277 275 274 273 271 269 267 267 269 271 273 274 273 271 270 268 263 258 252 244 232 220 216 212 208 207 213 225 237 243 238 220 201 190 190 191 189 187 187 188 191 191 188 184 185 189 193 194 193 192 192 195 199 202 202 199 198 196 194 192 191 193 195 193 190 190 190 191 190 188 185 183 181 181 181 182 183 183 182 181 178 175 172 169 166 163
276 275 275 273 272 270 269 268 268 270 272 272 273 272 271 269 264 257 251 242 233 226 222 213 203 196 199 210 224 234 234 215 190 175 177 180 177 173 173 176 180 180 175 166 164 170 176 178 179 180 180 181 184 187 190 192 193 193 191 190 190 192 193 191 189 188 187 186 186 186 184 182 180 178 178 178 177 176 175 173 171 169 168 165 161 158
277 275 272 271 270 270 268 267 267 268 269 270 270 269 268 266 263 258 252 241 232 227 225 217 204 196 199 207 218 228 228 209 180 164 167 169 165 163 165 166 169 171 166 153 147 150 154 158 161 164 166 168 170 173 177 181 184 185 184 186 187 189 190 189 187 186 185 182 182 183 182 179 177 176 174 173 172 171 170 169 168 166 165 161 158 155
278 271 266 265 265 264 263 262 262 262 263 264 264 263 262 261 260 257 252 241 230 227 226 219 207 198 199 206 215 222 221 205 175 158 160 158 155 155 158 157 160 164 162 149 136 128 130 137 144 149 153 157 160 164 168 171 173 174 175 177 180 182 184 184 182 181 181 179 178 178 177 175 174 173 171 170 168 168 167 167 166 164 161 158 156 154
349 287 254 255 256 255 253 252 252 253 254 256 256 255 255 255 255 253 249 239 230 225 223 219 210 200 196 201 207 212 213 201 171 151 154 152 151 152 154 151 152 158 164 156 139 122 117 122 130 137 143 148 152 156 160 162 164 165 166 167 168 171 175 178 177 176 175 174 174 173 172 171 170 170 168 167 166 165 165 164 163 162 159 158 156 155
50 59 66 68 219 234 233 236 238 241 243 245 246 246 247 248 247 246 244 238 230 222 218 216 212 205 197 195 201 207 207 196 167 148 149 148 149 150 152 149 146 150 159 162 150 136 126 121 124 129 135 140 143 147 150 154 156 158 160 159 159 160 165 169 170 170 170 170 170 169 168 168 167 166 165 163 162 161 161 161 161 161 160 159 158 158
55 59 64 69 79 98 137 185 206 217 225 230 234 236 239 241 241 239 236 233 225 218 213 214 214 211 203 196 198 203 204 191 165 147 145 145 146 147 149 147 144 143 146 151 149 142 135 129 127 127 130 133 136 139 142 145 148 152 155 155 153 153 157 160 162 163 163 164 164 164 164 164 163 162 161 160 159 159 159 160 161 162 163 163 163 163
54 59 63 69 76 86 99 118 140 163 184 201 213 221 228 232 232 230 227 224 218 213 210 210 213 213 207 201 199 200 199 189 166 148 144 144 145 146 146 145 143 141 139 139 139 138 135 132 130 128 128 130 133 135 137 139 142 146 150 152 151 151 153 156 157 158 158 159 159 159 159 159 159 160 159 159 160 160 161 162 163 165 167 169 169 170
51 55 58 63 68 76 84 93 104 117 132 152 173 193 208 215 217 217 216 215 212 209 207 208 210 210 205 200 198 197 194 188 170 152 145 144 146 147 147 145 144 143 140 137 136 135 133 133 132 130 129 129 131 133 136 138 141 143 147 150 151 152 153 155 156 156 156 156 156 156 157 158 159 159 160 161 162 163 164 166 168 171 173 175 176 176
46 48 51 54 58 63 69 75 83 92 104 118 135 156 175 187 194 199 203 206 207 206 205 206 208 207 203 198 195 193 191 187 176 162 151 147 147 148 149 148 146 145 143 141 139 137 136 134 134 134 133 131 130 132 136 140 142 144 145 148 150 152 153 155 155 155 156 155 155 156 157 158 159 159 160 161 163 164 165 166 168 169 171 172 173 171
42 43 45 47 50 54 58 64 69 76 85 99 112 126 139 152 164 177 187 195 201 203 204 205 207 206 201 196 192 191 189 187 182 174 162 153 150 150 151 150 148 147 146 144 143 142 140 137 136 135 135 134 133 134 136 140 143 144 144 146 149 151 152 154 154 155 155 154 154 155 155 156 156 156 155 156 157 157 157 157 158 159 159 160 160 160
39 39 41 43 45 47 51 54 58 63 71 82 93 102 113 126 139 153 168 181 191 196 197 200 202 202 198 194 191 190 189 187 186 183 174 160 153 152 153 151 149 149 149 148 147 146 144 141 138 136 134 135 136 138 140 142 143 143 144 147 149 150 151 153 154 154 154 153 153 153 154 154 154 153 153 153 153 153 153 153 154 155 156 156 157 158
36 37 38 39 40 41 43 45 49 55 64 71 79 90 103 116 129 141 153 166 177 183 186 188 190 191 190 189 189 190 188 187 188 188 184 170 157 154 155 154 152 150 150 150 150 149 147 145 142 139 136 135 136 139 143 145 144 144 145 146 148 149 151 153 154 154 153 153 152 152 153 153 153 152 152 153 154 154 154 155 156 157 159 159 160 160
36 36 37 38 38 39 40 42 46 52 59 68 78 91 105 115 124 133 144 155 165 172 176 177 177 179 181 183 186 188 188 188 190 191 191 182 166 158 158 156 154 152 151 150 150 150 149 148 146 144 141 139 139 140 141 143 144 145 145 144 144 145 149 151 152 153 153 152 152 152 152 152 152 153 154 155 157 157 158 158 158 160 162 163 163 162
36 36 37 38 39 42 43 45 47 52 60 70 84 98 109 115 119 124 131 141 151 158 164 164 164 167 173 178 182 185 186 187 189 192 195 192 178 164 161 159 156 153 152 151 151 151 151 149 147 145 144 142 141 141 141 141 142 144 145 143 142 143 146 149 151 152 152 153 153 153 153 153 154 155 156 157 158 159 160 160 159 160 161 162 162 161
37 37 37 37 39 42 44 47 52 58 66 78 90 101 108 113 116 120 124 129 134 141 147 147 149 154 163 171 177 181 182 183 186 191 195 196 189 175 166 161 157 154 153 152 152 152 152 151 149 147 146 144 143 141 141 142 144 146 146 144 143 143 144 147 150 153 153 154 155 155 155 156 156 157 157 158 158 159 159 159 158 158 157 157 157 158
39 38 38 39 41 43 46 50 56 63 72 82 90 97 103 110 115 118 121 122 124 129 134 136 139 145 153 160 167 172 175 178 181 186 191 194 192 183 172 164 158 155 153 153 152 151 152 153 152 151 151 151 149 147 146 147 149 151 151 150 148 147 145 148 152 155 157 157 157 158 158 159 158 158 158 158 157 157 157 157 157 156 156 157 157 158
39 40 40 41 43 45 48 52 56 61 67 74 82 91 99 105 111 115 117 118 120 123 126 128 133 140 146 150 155 161 166 172 177 181 185 189 189 185 178 169 161 156 154 154 153 153 154 153 154 155 156 157 157 155 154 154 156 157 158 159 159 159 156 156 159 161 162 162 161 161 161 160 159 158 157 156 156 156 156 157 157 158 158 159 160 161
40 41 42 42 43 44 47 49 53 57 63 70 79 87 95 101 107 111 113 115 117 119 120 123 128 131 133 138 144 151 157 163 169 174 177 181 182 182 180 174 166 158 154 154 154 155 156 155 155 157 159 161 161 160 159 160 161 162 164 166 166 166 164 164 165 166 165 163 162 161 160 160 158 157 156 155 156 157 158 159 160 161 162 163 164 165
41 42 43 43 44 45 47 50 53 57 61 68 76 83 91 97 103 108 112 114 115 115 117 122 124 123 121 125 132 140 146 152 158 162 165 169 173 176 177 176 170 162 154 151 152 154 156 156 156 157 158 159 159 160 161 162 163 163 165 166 166 164 162 161 162 162 161 160 159 159 159 159 158 158 158 158 158 159 160 162 163 164 165 166 167 168
40 42 43 44 45 47 49 51 54 57 61 66 72 80 88 94 99 104 109 113 113 114 115 119 120 119 117 119 124 129 135 140 146 151 155 159 163 168 171 173 171 166 158 152 150 150 151 152 154 157 158 157 156 156 159 162 163 162 162 163 162 160 157 157 158 158 158 158 158 159 160 161 161 161 161 161 161 162 163 165 166 168 169 170 171 171
39 40 42 43 45 47 49 52 55 58 62 65 70 77 85 91 96 99 103 108 111 113 114 114 114 115 115 117 120 125 129 133 137 143 148 152 157 161 164 167 167 166 161 156 152 150 149 149 151 153 156 156 155 155 157 160 161 161 160 160 159 158 157 158 159 160 161 161 162 163 165 166 167 167 167 166 165 165 166 168 169 171 172 173 174 174
39 40 42 43 45 47 50 52 56 60 63 65 69 74 81 89 94 97 100 104 108 110 110 110 110 111 112 114 118 123 126 130 134 138 142 146 151 155 159 161 163 162 161 158 156 154 152 151 150 151 153 155 155 156 157 159 160 159 159 159 160 160 160 161 162 164 167 168 168 169 170 171 172 172 172 171 170 169 170 171 172 173 174 175 176 177
41 41 42 43 44 46 49 52 56 60 63 65 68 72 78 86 92 96 100 103 105 106 107 107 108 109 110 113 117 121 124 127 130 133 136 140 144 149 152 155 157 157 156 155 154 153 151 150 149 149 150 152 154 155 157 159 160 160 161 162 163 163 164 164 167 169 171 172 172 173 173 174 175 176 176 175 174 174 174 174 175 175 175 176 177 179
42 42 43 43 44 46 48 51 55 59 63 65 68 72 76 81 87 93 98 100 101 102 104 106 108 108 109 112 117 121 124 127 128 129 131 136 140 143 146 149 150 150 148 147 146 146 145 143 140 139 142 145 150 154 157 159 161 162 163 164 166 167 167 167 169 171 173 174 174 174 174 175 176 178 180 180 179 178 177 177 176 176 177 178 179 181